軌道要素
Epoch 2023 Feb. 25.0 TT = JDT 2460000.5
T 2022 July 16.83411 TT Rudenko
q 2.1968704 (2000.0) P Q
n 0.15121195 Peri. 173.26348 -0.96917895 +0.24532800
a 3.4893563 Node 20.97929 -0.22886023 -0.86277111
e 0.3704081 Incl. 3.60338 -0.09118750 -0.44208618
P 6.52
>From 2937 observations 2014 Oct. 31-2023 Mar. 17, mean residual 0".7.
|